[[{"header":{"parameterUnit":"m.s-1","parameterCategory":1,"la1":30.2992,"la2":30.254,"lo1":-89.0895,"lo2":-89.0443,"dy":0.0025,"dx":0.0025,"nx":19,"ny":19,"refTime":"2026-04-03T09:00:00:Z","depth":0,"parameterNumber":2,"parameterNumberName":"U-component_of_WINDS"},"data":[0,0,0,-3.4841,-3.484,-3.4785,-3.4785,-3.474,-3.474,0,0,0,0,0,0,0,0,0,0,0,-3.4873,-3.4873,-3.4841,-3.484,-3.4785,-3.4785,-3.474,-3.474,0,0,0,0,0,0,0,0,0,0,0,-3.4873,-3.4873,-3.4873,-3.484,-3.4785,-3.4785,-3.474,-3.4772,0,0,0,0,0,0,0,0,0,0,-3.4822,-3.4866,-3.4873,-3.4874,-3.484,-3.4785,-3.4785,-3.4774,-3.477,-3.4776,0,-3.4785,0,-3.4762,-3.4738,-3.4738,0,0,0,-3.4829,-3.4869,-3.484,-3.4874,-3.484,-3.4785,-3.4807,-3.4771,-3.4768,-3.4772,-3.4784,-3.4782,-3.4761,-3.4738,-3.4738,-3.4809,-3.481,0,0,-3.4832,-3.4871,-3.4843,-3.4839,-3.4849,-3.4809,-3.4805,-3.4769,-3.4785,-3.4784,-3.478,-3.476,-3.4738,-3.4738,-3.4809,-3.481,0,0,0,-3.4848,-3.4874,-3.4845,-3.4841,-3.4829,-3.4807,-3.4803,-3.4786,-3.4774,-3.4779,-3.476,-3.4738,-3.4738,-3.4808,-3.4809,-3.489,0,0,0,-3.485,-3.4883,-3.4847,-3.4871,-3.4831,-3.4807,-3.4822,-3.4776,-3.4771,-3.476,-3.4738,-3.4737,-3.4806,-3.4808,-3.4886,-3.4921,0,0,0,-3.4871,-3.4886,-3.4883,-3.4873,-3.4851,-3.4807,-3.4792,-3.4774,-3.476,-3.4738,-3.4737,-3.4806,-3.4808,-3.4882,-3.4914,-3.4951,0,0,0,-3.4906,-3.4956,-3.4885,-3.4934,-3.4852,-3.4858,-3.4791,-3.4794,-3.4786,-3.4738,-3.4807,-3.4809,-3.488,-3.491,-3.4947,-3.4987,-3.5008,0,0,-3.4991,-3.4968,-3.4993,-3.4928,-3.4957,-3.4863,-3.4904,-3.4858,-3.4821,-3.4815,-3.4817,-3.4887,-3.4914,-3.495,-3.5115,-3.5132,0,0,0,-3.5033,-3.5052,-3.5051,-3.5046,-3.5013,-3.4988,-3.4932,-3.4916,-3.491,-3.4826,-3.491,-3.4925,-3.4944,-3.4961,-3.4976,-3.4989,-3.4819,-3.4819,-3.4819,-3.5209,-3.5159,-3.5197,-3.5141,-3.5137,-3.508,-3.5071,-3.504,-3.4989,-3.501,-3.5007,-3.5114,-3.5136,-3.5146,-3.5162,-3.5026,-3.5027,-3.5027,-3.5027,-3.5328,-3.5346,-3.528,-3.5294,-3.5241,-3.5252,-3.52,-3.5165,-3.5167,-3.5112,-3.5126,-3.5068,-3.5167,-3.5177,-3.5033,-3.5032,-3.5031,-3.5031,-3.503,-3.5435,-3.5435,-3.5416,-3.5403,-3.5399,-3.5341,-3.5347,-3.5298,-3.5252,-3.5267,-3.5259,-3.5257,-3.5248,-3.5267,-3.5268,-3.5268,-3.5268,-3.5268,-3.5269,-3.5554,-3.5529,-3.554,-3.5512,-3.5502,-3.5484,-3.5429,-3.5419,-3.5394,-3.5358,-3.5358,-3.5306,-3.5187,-3.5157,-3.5274,-3.5273,-3.5272,-3.5272,-3.5272,-3.569,-3.5652,-3.5669,-3.566,-3.5623,-3.5622,-3.5562,-3.5545,-3.5529,-3.5534,-3.5479,-3.54,-3.5372,-3.536,-3.5334,-3.5491,-3.5491,-3.5491,-3.5491,-3.5779,-3.5762,-3.5768,-3.5757,-3.574,-3.5688,-3.5709,-3.5668,-3.562,-3.5607,-3.5578,-3.5542,-3.5532,-3.5509,-3.5494,-3.547,-3.5657,-3.5657,-3.5657,-3.586,-3.5838,-3.5865,-3.5818,-3.5786,-3.576,-3.5778,-3.5768,-3.5705,-3.5663,-3.5596,-3.5589,-3.5529,-3.5512,-3.5466,-3.5443,-3.5397,0,0]},{"header":{"parameterUnit":"m.s-1","parameterCategory":1,"la1":30.2992,"la2":30.254,"lo1":-89.0895,"lo2":-89.0443,"dy":0.0025,"dx":0.0025,"nx":19,"ny":19,"refTime":"2026-04-03T09:00:00:Z","depth":0,"parameterNumber":3,"parameterNumberName":"V-component_of_WINDS"},"data":[0,0,0,3.0962,3.0961,3.0916,3.0916,3.085,3.0849,0,0,0,0,0,0,0,0,0,0,0,3.097,3.097,3.0962,3.0961,3.0916,3.0916,3.085,3.0849,0,0,0,0,0,0,0,0,0,0,0,3.0971,3.097,3.0969,3.0961,3.0916,3.0916,3.085,3.0887,0,0,0,0,0,0,0,0,0,0,3.0932,3.0934,3.097,3.0969,3.0961,3.0916,3.0916,3.0889,3.0885,3.0867,0,3.0849,0,3.0848,3.0844,3.0844,0,0,0,3.0965,3.0937,3.0931,3.0969,3.096,3.0916,3.0938,3.0887,3.0882,3.0861,3.0848,3.0846,3.0847,3.0844,3.0843,3.0729,3.0729,0,0,3.0967,3.0959,3.0934,3.0927,3.0934,3.0939,3.0936,3.0884,3.0869,3.0848,3.0845,3.0846,3.0843,3.0843,3.073,3.0729,0,0,0,3.0972,3.096,3.0955,3.093,3.0923,3.0938,3.0934,3.0872,3.0871,3.0844,3.0845,3.0843,3.0842,3.0731,3.073,3.0688,0,0,0,3.0974,3.0963,3.0956,3.095,3.0923,3.0896,3.0923,3.0874,3.0869,3.0846,3.0843,3.0841,3.0732,3.073,3.0691,3.0669,0,0,0,3.0975,3.0963,3.0955,3.095,3.093,3.0897,3.0894,3.0873,3.0869,3.0844,3.0841,3.0732,3.0731,3.0694,3.0674,3.0639,0,0,0,3.0973,3.0916,3.0954,3.0891,3.0931,3.0872,3.0894,3.0851,3.0824,3.0843,3.0732,3.073,3.0694,3.0676,3.0641,3.0608,3.0593,0,0,3.0897,3.0907,3.0871,3.0903,3.0837,3.088,3.0807,3.0789,3.0794,3.0751,3.0748,3.069,3.0674,3.0639,3.0513,3.0501,0,0,0,3.0843,3.0818,3.0802,3.0777,3.0764,3.0752,3.0747,3.0742,3.0706,3.077,3.0668,3.0659,3.0639,3.0623,3.0613,3.0597,3.0722,3.0722,3.0723,3.0721,3.0733,3.0675,3.0682,3.0658,3.0656,3.0638,3.063,3.0645,3.0622,3.0609,3.0531,3.0512,3.0505,3.0488,3.0592,3.0592,3.0592,3.0591,3.061,3.0576,3.0603,3.0557,3.057,3.053,3.0528,3.0541,3.0507,3.0541,3.0523,3.056,3.0492,3.0478,3.0588,3.0589,3.0589,3.059,3.059,3.0532,3.0518,3.0514,3.0483,3.0457,3.0466,3.0434,3.0446,3.0457,3.044,3.0429,3.043,3.0433,3.0435,3.0434,3.0434,3.0434,3.0434,3.0433,3.0452,3.0449,3.042,3.0405,3.0394,3.0379,3.038,3.0368,3.0358,3.037,3.037,3.039,3.0483,3.0507,3.0429,3.043,3.043,3.0431,3.0431,3.0335,3.0365,3.0321,3.0309,3.0295,3.027,3.0288,3.0264,3.0256,3.024,3.0265,3.0332,3.0343,3.0351,3.037,3.0262,3.0262,3.0262,3.0262,3.027,3.0277,3.0237,3.0219,3.0202,3.0215,3.0166,3.0167,3.0172,3.0169,3.0186,3.0214,3.0221,3.0227,3.0238,3.0257,3.0122,3.0122,3.0121,3.02,3.0207,3.0163,3.0171,3.0161,3.0153,3.0109,3.0087,3.0098,3.0116,3.0166,3.0172,3.0217,3.023,3.0247,3.0264,3.0298,0,0]}]]